DW6561 Weather Reports


time (UTC)temp
C
wind
direction
speed
KPH
gust
KPH
rain 1hr
cm
rain 24hr
cm
rain mn
cm
humidity
%
barometer
mb
20260831064530 15 96 0.0 0.0 0.00 0.00 0.00 48 1015.6
20260831063023 15 96 0.0 0.0 0.00 0.00 0.00 46 1015.5
20260831061537 16 96 0.0 0.0 0.00 0.00 0.00 46 1015.6
20260831060004 16 96 0.0 0.0 0.00 0.00 0.00 45 1015.6
20260831054504 16 96 0.0 0.0 0.00 0.00 0.00 45 1015.6
20260831053020 16 96 0.0 0.0 0.00 0.00 0.00 42 1015.7
20260831051508 17 96 0.0 0.0 0.00 0.00 0.00 41 1015.6
20260831050023 17 96 0.0 0.0 0.00 0.00 0.00 39 1015.6
20260831044511 18 96 0.0 0.0 0.00 0.00 0.00 39 1015.6
20260831043010 18 96 0.0 0.0 0.00 0.00 0.00 38 1015.5
20260831041505 18 96 0.0 0.0 0.00 0.00 0.00 37 1015.6
20260831040012 19 96 0.0 0.0 0.00 0.00 0.00 38 1015.6
20260831034507 19 96 0.0 0.0 0.00 0.00 0.00 38 1015.6
20260831033018 20 96 0.0 0.0 0.00 0.00 0.00 38 1015.6
20260831031515 20 96 0.0 0.0 0.00 0.00 0.00 39 1015.5
20260831030025 20 96 0.0 0.0 0.00 0.00 0.00 39 1015.5
20260831024504 21 96 0.0 0.0 0.00 0.00 0.00 39 1015.3
20260831023009 21 96 0.0 0.0 0.00 0.00 0.00 36 1015.3
20260831021518 22 96 0.0 0.0 0.00 0.00 0.00 33 1015.4
20260831020023 22 96 0.0 0.0 0.00 0.00 0.00 32 1015.3
20260831014530 23 94 0.0 0.0 0.00 0.00 0.00 33 1015.3
20260831013008 23 84 0.0 0.0 0.00 0.00 0.00 33 1015.3
20260831011512 23 84 0.0 0.0 0.00 0.00 0.00 32 1015.3
20260831010020 24 85 0.0 0.0 0.00 0.00 0.00 31 1015.4
20260831004527 24 84 0.0 1.6 0.00 0.00 0.00 31 1015.4
20260831003024 25 151 0.0 3.2 0.00 0.00 0.00 31 1015.4
20260831001510 25 151 0.0 1.6 0.00 0.00 0.00 32 1015.4
20260831000018 25 143 0.0 1.6 0.00 0.00 0.00 31 1015.5
20260830234504 25 155 0.0 3.2 0.00 0.00 0.00 30 1015.7
20260830233007 25 143 0.0 3.2 0.00 0.00 0.00 29 1015.9
20260830231512 25 184 0.0 3.2 0.00 0.00 0.00 28 1016.0
20260830230004 25 173 0.0 3.2 0.00 0.00 0.00 34 1016.1
20260830224502 25 159 0.0 8.0 0.00 0.00 0.00 30 1016.3
20260830223003 25 159 0.0 4.8 0.00 0.00 0.00 31 1016.6
20260830221503 24 177 3.2 11.3 0.00 0.00 0.00 29 1016.7
20260830220008 24 189 0.0 11.3 0.00 0.00 0.00 32 1017.0
20260830214504 23 163 3.2 9.7 0.00 0.00 0.00 32 1017.3
20260830213003 23 144 3.2 8.0 0.00 0.00 0.00 33 1017.5
20260830211507 23 160 3.2 14.5 0.00 0.00 0.00 33 1017.5
20260830210007 22 164 0.0 14.5 0.00 0.00 0.00 35 1017.6
20260830204504 22 165 4.8 16.1 0.00 0.00 0.00 35 1017.8
20260830203003 22 173 6.4 14.5 0.00 0.00 0.00 35 1018.1
20260830201503 22 206 3.2 11.3 0.00 0.00 0.00 39 1018.1
20260830200011 21 188 8.0 16.1 0.00 0.00 0.00 37 1018.1
20260830194513 21 180 3.2 16.1 0.00 0.00 0.00 41 1018.3
20260830193010 20 200 8.0 20.9 0.00 0.00 0.00 38 1018.4
20260830191523 20 164 3.2 12.9 0.00 0.00 0.00 41 1018.4
20260830190003 20 267 4.8 20.9 0.00 0.00 0.00 44 1018.4
20260830184515 19 174 8.0 19.3 0.00 0.00 0.00 46 1018.6
20260830183019 19 183 4.8 19.3 0.00 0.00 0.00 47 1018.7
20260830181518 19 143 9.7 19.3 0.00 0.00 0.00 48 1018.8
20260830180006 18 151 8.0 22.5 0.00 0.00 0.00 50 1018.8
20260830174512 18 152 8.0 17.7 0.00 0.00 0.00 51 1018.7
20260830173010 17 252 8.0 19.3 0.00 0.00 0.00 53 1018.8
20260830171523 17 159 11.3 24.1 0.00 0.00 0.00 54 1018.7
20260830170026 16 178 12.9 25.7 0.00 0.00 0.00 54 1018.8
20260830164511 16 114 11.3 25.7 0.00 0.00 0.00 57 1018.8
20260830163032 16 176 14.5 29.0 0.00 0.00 0.00 57 1019.0
20260830161514 15 187 12.9 30.6 0.00 0.00 0.00 59 1019.0
20260830160015 15 183 9.7 24.1 0.00 0.00 0.00 60 1018.9
20260830154534 15 198 8.0 24.1 0.00 0.00 0.00 62 1018.8
20260830153012 14 184 11.3 32.2 0.00 0.00 0.00 64 1018.8
20260830151520 13 219 9.7 22.5 0.00 0.00 0.00 65 1019.0
20260830150026 13 121 9.7 22.5 0.00 0.00 0.00 66 1018.7
20260830144512 13 179 9.7 22.5 0.00 0.00 0.00 67 1018.7
20260830143012 12 153 8.0 22.5 0.00 0.00 0.00 68 1018.6
20260830141517 12 157 8.0 16.1 0.00 0.00 0.00 70 1018.6
20260830140003 12 134 4.8 16.1 0.00 0.00 0.00 70 1018.5
20260830134504 11 158 8.0 17.7 0.00 0.00 0.00 71 1018.5
20260830133004 11 196 6.4 17.7 0.00 0.00 0.00 71 1018.5
20260830131524 11 140 6.4 14.5 0.00 0.00 0.00 71 1018.4
20260830130023 11 177 6.4 16.1 0.00 0.00 0.00 71 1018.3
20260830124505 11 183 8.0 16.1 0.00 0.00 0.00 70 1018.3
20260830123010 12 183 6.4 14.5 0.00 0.00 0.00 69 1018.3
20260830121511 12 150 6.4 16.1 0.00 0.00 0.00 69 1018.3
20260830120008 12 171 6.4 14.5 0.00 0.00 0.00 70 1018.1
20260830114532 12 186 4.8 12.9 0.00 0.00 0.00 68 1018.2
20260830113004 12 159 6.4 16.1 0.00 0.00 0.00 68 1018.2
20260830111512 12 161 6.4 14.5 0.00 0.00 0.00 69 1018.2
20260830110018 12 93 4.8 9.7 0.00 0.00 0.00 69 1018.2
20260830104513 12 138 1.6 11.3 0.00 0.00 0.00 68 1018.1
20260830103008 12 173 4.8 12.9 0.00 0.00 0.00 68 1018.2
20260830101531 12 169 4.8 12.9 0.00 0.00 0.00 66 1018.1
20260830100015 13 184 3.2 9.7 0.00 0.00 0.00 64 1018.0
20260830094527 13 113 4.8 11.3 0.00 0.00 0.00 63 1017.9
20260830093032 13 180 4.8 11.3 0.00 0.00 0.00 59 1017.8
20260830091523 13 156 3.2 12.9 0.00 0.00 0.00 58 1017.8
20260830090014 13 151 4.8 9.7 0.00 0.00 0.00 55 1017.7
20260830084519 13 157 1.6 11.3 0.00 0.00 0.00 55 1017.8
20260830083029 13 166 3.2 9.7 0.00 0.00 0.00 54 1017.9
20260830081534 13 136 0.0 12.9 0.00 0.00 0.00 54 1017.8
20260830080028 13 150 1.6 8.0 0.00 0.00 0.00 53 1017.7
20260830074503 13 172 3.2 11.3 0.00 0.00 0.00 52 1017.6
20260830073003 13 171 3.2 9.7 0.00 0.00 0.00 51 1017.6
20260830071502 14 171 0.0 6.4 0.00 0.00 0.00 49 1017.5
20260830070007 15 156 0.0 3.2 0.00 0.00 0.00 48 1017.5